Torna al catalogo

FENGYUN 1C DEB

AttivoSSO
NORAD 30523·DEBRIS·🇨🇳 China

Lanciato May 10, 1999 da Taiyuan Satellite Launch Center

Loading…

Prossimi Passaggi (prossime 24 ore)

TLE

AggiornatoSource: Space-Track

Epoca: Sep 14, 2026, 04:35 UTC

1 30523U 99025AJM 26257.19128271  .00000657  00000-0  20644-3 0  9998
2 30523  98.4973 233.0284 0242411  18.4348 355.0081 14.28335677 20324

Traccia FENGYUN 1C DEB in tempo reale con AllMySat

Download on the App Store